Regional Weather Roundup
Issued by NWS

Home | Current Version | Previous Version | Graphics & Text | Print | Product List | Glossary On
Versions: 1 2 3 4 5 6 7 8 9 10 11 12 13 14 15 16 17 18 19 20 21 22 23 24 25 26 27 28 29 30 31 32 33 34 35 36 37 38 39 40 41 42 43 44 45 46 47 48 49 50
000
ASUS43 KDMX 250606
RWRIA

WEATHER ROUNDUP FOR IOWA
NATIONAL WEATHER SERVICE DES MOINES IA
1200 AM CST SAT FEB 25 2017

NOTE: "FAIR" INDICATES FEW OR NO CLOUDS BELOW 12,000 FEET WITH NO
SIGNIFICANT WEATHER AND/OR OBSTRUCTIONS TO VISIBILITY.

* - THESE STATIONS ARE NOT NWS STATIONS...THUS NOT UNDER NWS
QUALITY CONTROL.  THEY ALSO DO NOT REPORT WEATHER SUCH
AS PRECIPITATION OR FOG.

IAZ001>003-012>014-020>022-031>034-043>046-250700-
   NORTHWEST IOWA

CITY           SKY/WX    TMP DP  RH WIND       PRES   REMARKS
CARROLL *      PTCLDY    21  18  86 NW22      29.98R WCI   5
CHEROKEE *     CLEAR     19  13  79 NW12G23   30.01R WCI   6
DENISON *      PTCLDY    19  14  79 NW17G24   29.99R WCI   4
LE MARS *      CLEAR     19  12  73 NW13      30.06R WCI   7
SHELDON *      CLEAR     18  16  93 NW17G24   30.00R WCI   2
SIOUX CITY     CLEAR     21  13  71 NW17      30.06R WCI   7
6HR MIN TEMP:  21; 6HR MAX TEMP:  27;

SPENCER        CLOUDY    18  12  77 NW18G29   29.97R WCI   2
6HR MIN TEMP:  18; 6HR MAX TEMP:  23;

STORM LAKE *   PTCLDY    18  12  79 NW21      29.97R WCI   1
$$

IAZ055>058-069>071-079>083-090>094-250700-
   SOUTHWEST IOWA

CITY           SKY/WX    TMP DP  RH WIND       PRES   REMARKS
ATLANTIC *     CLOUDY    21  16  79 NW20      30.00S WCI   6
AUDUBON *      CLEAR     19  16  86 NW14      29.98S WCI   6
CLARINDA *     CLOUDY    23  18  80 NW9G15    30.07R WCI  13
COUNCIL BLFS * MOCLDY    21  18  86 N12       30.04R WCI   9
CRESTON *      FLURRIES  21  16  79 NW21G28   29.98R WCI   6
HARLAN  *      PTCLDY    21  16  79 NW21G26   30.05R WCI   6
LAMONI         CLOUDY    23  16  74 NW20G26   29.95R WCI   8
6HR MIN TEMP:  23; 6HR MAX TEMP:  25; 6HR PCP: TRACE;

RED OAK *      CLOUDY    21  16  79 NW10      30.04R WCI  10
SHENANDOAH *   CLOUDY    23  18  80 NW7       30.07R WCI  15
$$

IAZ047>049-059>061-072>074-084-250700-
   CENTRAL IOWA

CITY           SKY/WX    TMP DP  RH WIND       PRES   REMARKS
AMES           CLEAR     21  17  84 NW18G25   29.92R WCI   6
6HR MIN TEMP:  20; 6HR MAX TEMP:  24; 6HR PCP: TRACE;

ANKENY *       CLEAR     21  16  79 NW13G20   29.94R WCI   9
BOONE *        CLEAR     19  14  79 NW18G29   29.91R WCI   4
CHARITON *     CLOUDY    23  18  80 NW15G22   29.92R WCI  10
DES MOINES     PTCLDY    22  15  75 NW16      29.93R WCI   8
6HR MIN TEMP:  22; 6HR MAX TEMP:  25; 6HR PCP:  0.02;

GRINNELL*      MOCLDY    22  17  81 NW15      29.87R WCI   9
KNOXVILLE *    CLOUDY    23  14  68 NW18G28   29.89R WCI   9
MARSHALLTOWN   PTCLDY    20  14  77 NW18      29.87R WCI   5
6HR MIN TEMP:  20; 6HR MAX TEMP:  25; 6HR PCP: TRACE;

NEWTON *       CLOUDY    21  16  79 NW15G24   29.89R WCI   8
PELLA *        MOCLDY    24  17  76 NW21      29.90R WCI   9
PERRY *          N/A     21  17  84 NW16G23   29.96R WCI   7
$$

IAZ004>006-015-016-023>025-035-036-250700-
   NORTH CENTRAL IOWA

CITY           SKY/WX    TMP DP  RH WIND       PRES   REMARKS
ALGONA *       PTCLDY    18  16  93 NW17G26   29.92R FOG     WCI   2
CLARION *      CLEAR     18  14  86 NW16      29.90S WCI   3
ESTHERVILLE    CLEAR     16  13  88 NW22G30   29.94R WCI  -2
6HR MIN TEMP:  16; 6HR MAX TEMP:  22;

FORT DODGE *   CLEAR     19  10  68 NW12G17   29.93S WCI   7
MASON CITY     CLEAR     17  13  84 NW17      29.88R WCI   1
6HR MIN TEMP:  17; 6HR MAX TEMP:  22; 6HR PCP: TRACE;

FOREST CITY *    N/A     18  12  79 NW14      29.88R WCI   4
WEBSTER CITY * CLEAR     19  14  79 NW21      29.90R WCI   3
IOWA FALLS *     N/A     20  14  77 NW16      29.89R WCI   5
$$

IAZ007>011-017>019-026>030-037>042-050>054-066-250700-
   NORTHEAST IOWA

CITY           SKY/WX    TMP DP  RH WIND       PRES   REMARKS
CEDAR RAPIDS   LGT SNOW  22  19  89 NW20G30   29.79R FOG     WCI   7
6HR MIN TEMP:  22; 6HR MAX TEMP:  31; 6HR PCP:  0.01;

CHARLES CITY * CLOUDY    21  14  73 NW21      29.84R WCI   6
CLINTON *      LGT SNOW  26  24  92 NW18G26   29.72R FOG     WCI  13
DECORAH *      FLURRIES  19  14  79 N15G23    29.77R WCI   5
DUBUQUE        LGT SNOW  22  19  89 N17       29.71R VSB 1   WCI   8
6HR MIN TEMP:  22; 6HR MAX TEMP:  29; 6HR PCP:  0.01;

MONTICELLO *   LGT SNOW  23  19  86 NW17      29.76R WCI   9
OELWEIN *      FLURRIES  21  18  86 N18       29.80S WCI   6
WATERLOO       CLOUDY    22  14  71 NW21G30   29.83R WCI   6
6HR MIN TEMP:  22; 6HR MAX TEMP:  26; 6HR PCP:  0.01;

$$

IAZ064-065-067-068-078-250700-
   EAST CENTRAL IOWA

CITY           SKY/WX    TMP DP  RH WIND       PRES   REMARKS
DAVENPORT      LGT SNOW  25  22  88 NW21G28   29.74R FOG     WCI  11
6HR MIN TEMP:  26; 6HR MAX TEMP:  33; 6HR PCP:  0.01;

IOWA CITY      LGT SNOW  25  20  81 NW16      29.82R WCI  12
6HR MIN TEMP:  25; 6HR MAX TEMP:  33; 6HR PCP:  0.02;

MUSCATINE *    LGT SNOW  27  23  86 NW16G22   29.80R WCI  14
QUAD CITIES    LGT SNOW  29  23  78 NW17G25   29.74R WCI  17
6HR MIN TEMP:  29; 6HR MAX TEMP:  38; 6HR PCP:  0.02;

$$

IAZ062-063-075>077-085>089-095>099-250700-
   SOUTHEAST IOWA

CITY           SKY/WX    TMP DP  RH WIND       PRES   REMARKS
BURLINGTON     LGT SNOW  27  23  85 NW18G28   29.79R FOG     WCI  14
6HR MIN TEMP:  27; 6HR MAX TEMP:  37; 6HR PCP: TRACE;

FAIRFIELD *    CLOUDY    25  21  86 NW20G25   29.84R HAZE    WCI  11
KEOKUK *       CLOUDY    27  23  86 NW18G25   29.83R WCI  13
CENTERVILLE *  FLURRIES  23  19  86 W16G24    29.91R WCI  10
OTTUMWA        CLOUDY    25  19  78 NW17G25   29.87R WCI  12
6HR MIN TEMP:  24; 6HR MAX TEMP:  30; 6HR PCP: TRACE;

WASHINGTON *   LGT SNOW  25  21  86 NW22      29.83R WCI  10
$$

ABBREVIATIONS USED IN REMARKS
   TC - TEMPERATURES IN CELSIUS
  WCI - WIND CHILL INDEX
   HX - HEAT INDEX
  VSB - VISIBILITY
$$





USA.gov is the U.S. government's official web portal to all federal, state and local government web resources and services.